| time (UTC) | temp C | wind direction | speed KPH | gust KPH | rain 1hr cm | rain 24hr cm | rain mn cm | humidity % | barometer mb |
| 20260506001516 | -3 | 248 | 1.6 | 3.2 | 0.00 | 0.03 | 0.00 | 85 | 1010.8 |
| 20260506000536 | -3 | 0.0 | 1.6 | 0.00 | 0.03 | 0.00 | 85 | 1010.8 | |
| 20260505235517 | -2 | 248 | 1.6 | 3.2 | 0.00 | 0.03 | 0.00 | 84 | 1010.7 |
| 20260505234516 | -2 | 0.0 | 1.6 | 0.00 | 0.03 | 0.00 | 83 | 1010.8 | |
| 20260505233516 | -2 | 0.0 | 0.0 | 0.00 | 0.03 | 0.00 | 83 | 1010.7 | |
| 20260505232516 | -2 | 0.0 | 1.6 | 0.00 | 0.03 | 0.00 | 82 | 1010.6 | |
| 20260505231536 | -2 | 0.0 | 1.6 | 0.00 | 0.03 | 0.00 | 82 | 1010.5 | |
| 20260505230517 | -2 | 0.0 | 1.6 | 0.00 | 0.03 | 0.00 | 81 | 1010.5 | |
| 20260505225556 | -2 | 315 | 1.6 | 3.2 | 0.00 | 0.03 | 0.00 | 81 | 1010.4 |
| 20260505224516 | -2 | 315 | 3.2 | 4.8 | 0.00 | 0.05 | 0.00 | 81 | 1010.5 |
| 20260505223516 | -2 | 0.0 | 3.2 | 0.00 | 0.05 | 0.00 | 81 | 1010.4 | |
| 20260505222516 | -1 | 0.0 | 1.6 | 0.00 | 0.08 | 0.00 | 80 | 1010.3 | |
| 20260505221536 | -1 | 315 | 1.6 | 3.2 | 0.00 | 0.08 | 0.00 | 79 | 1010.1 |
| 20260505220516 | -1 | 315 | 1.6 | 3.2 | 0.00 | 0.08 | 0.00 | 78 | 1010.1 |
| 20260505215516 | -1 | 315 | 3.2 | 4.8 | 0.00 | 0.10 | 0.10 | 77 | 1010.0 |
| 20260505214516 | -1 | 315 | 3.2 | 4.8 | 0.00 | 0.10 | 0.10 | 76 | 1010.0 |
| 20260505213515 | -1 | 315 | 3.2 | 4.8 | 0.00 | 0.10 | 0.10 | 75 | 1010.1 |
| 20260505212516 | 0 | 315 | 3.2 | 3.2 | 0.00 | 0.10 | 0.10 | 73 | 1009.9 |
| 20260505211516 | 0 | 293 | 3.2 | 3.2 | 0.00 | 0.10 | 0.10 | 72 | 1009.8 |
| 20260505210516 | 0 | 270 | 1.6 | 4.8 | 0.00 | 0.10 | 0.10 | 71 | 1009.8 |
| 20260505205516 | 0 | 0.0 | 1.6 | 0.00 | 0.10 | 0.10 | 70 | 1009.6 | |
| 20260505204516 | 0 | 270 | 1.6 | 3.2 | 0.00 | 0.10 | 0.10 | 68 | 1009.5 |
| 20260505203516 | 1 | 270 | 1.6 | 3.2 | 0.00 | 0.10 | 0.10 | 66 | 1009.5 |
| 20260505202516 | 1 | 0.0 | 3.2 | 0.00 | 0.10 | 0.10 | 64 | 1009.4 | |
| 20260505201516 | 2 | 248 | 1.6 | 3.2 | 0.00 | 0.10 | 0.10 | 62 | 1009.4 |
| 20260505200516 | 2 | 248 | 1.6 | 4.8 | 0.00 | 0.10 | 0.10 | 60 | 1009.3 |
| 20260505195515 | 2 | 248 | 1.6 | 3.2 | 0.00 | 0.10 | 0.10 | 59 | 1009.3 |
| 20260505194516 | 3 | 270 | 3.2 | 6.4 | 0.00 | 0.10 | 0.10 | 58 | 1009.3 |
| 20260505193516 | 3 | 270 | 3.2 | 4.8 | 0.00 | 0.10 | 0.10 | 56 | 1009.2 |
| 20260505192516 | 3 | 270 | 3.2 | 8.0 | 0.00 | 0.10 | 0.10 | 55 | 1009.1 |
| 20260505191516 | 3 | 270 | 3.2 | 6.4 | 0.00 | 0.10 | 0.10 | 54 | 1009.0 |
| 20260505190516 | 4 | 270 | 3.2 | 9.7 | 0.00 | 0.10 | 0.10 | 52 | 1009.0 |
| 20260505185515 | 5 | 270 | 3.2 | 4.8 | 0.00 | 0.10 | 0.10 | 51 | 1008.8 |
| 20260505184516 | 5 | 248 | 3.2 | 6.4 | 0.00 | 0.10 | 0.10 | 50 | 1008.6 |
| 20260505183515 | 5 | 248 | 3.2 | 9.7 | 0.00 | 0.10 | 0.10 | 47 | 1008.6 |
| 20260505182516 | 6 | 248 | 4.8 | 12.9 | 0.00 | 0.10 | 0.10 | 46 | 1008.5 |
| 20260505181516 | 6 | 270 | 4.8 | 12.9 | 0.00 | 0.10 | 0.10 | 49 | 1008.5 |
| 20260505180516 | 6 | 270 | 6.4 | 11.3 | 0.00 | 0.10 | 0.10 | 48 | 1008.4 |
| 20260505175516 | 6 | 270 | 4.8 | 8.0 | 0.00 | 0.10 | 0.10 | 49 | 1008.5 |
| 20260505174515 | 6 | 270 | 6.4 | 12.9 | 0.00 | 0.10 | 0.10 | 47 | 1008.4 |
| 20260505173515 | 7 | 270 | 4.8 | 11.3 | 0.00 | 0.10 | 0.10 | 46 | 1008.3 |
| 20260505172535 | 7 | 270 | 6.4 | 12.9 | 0.00 | 0.10 | 0.10 | 45 | 1008.2 |
| 20260505171516 | 6 | 315 | 8.0 | 16.1 | 0.00 | 0.10 | 0.10 | 45 | 1008.1 |
| 20260505170516 | 7 | 270 | 6.4 | 14.5 | 0.00 | 0.10 | 0.10 | 45 | 1008.1 |
| 20260505165515 | 7 | 270 | 6.4 | 11.3 | 0.00 | 0.10 | 0.10 | 44 | 1007.8 |
| 20260505164536 | 7 | 248 | 4.8 | 11.3 | 0.00 | 0.10 | 0.10 | 44 | 1007.9 |
| 20260505163515 | 7 | 248 | 3.2 | 6.4 | 0.00 | 0.10 | 0.10 | 49 | 1007.8 |
| 20260505162516 | 6 | 248 | 4.8 | 9.7 | 0.00 | 0.10 | 0.10 | 53 | 1008.0 |
| 20260505161515 | 5 | 203 | 8.0 | 14.5 | 0.00 | 0.10 | 0.10 | 56 | 1007.8 |
| 20260505160515 | 6 | 225 | 16.1 | 35.4 | 0.00 | 0.10 | 0.10 | 56 | 1008.1 |
| 20260505152515 | 7 | 338 | 3.2 | 9.7 | 0.00 | 0.10 | 0.10 | 40 | 1007.3 |
| 20260505151516 | 7 | 225 | 11.3 | 20.9 | 0.00 | 0.10 | 0.10 | 42 | 1007.5 |
| 20260505150516 | 7 | 270 | 16.1 | 33.8 | 0.00 | 0.10 | 0.10 | 40 | 1007.3 |
| 20260505140516 | 8 | 248 | 8.0 | 17.7 | 0.03 | 0.10 | 0.10 | 41 | 1007.1 |
| 20260505124515 | 9 | 248 | 6.4 | 17.7 | 0.00 | 0.08 | 0.08 | 38 | 1006.8 |
| 20260505123515 | 8 | 0 | 4.8 | 12.9 | 0.00 | 0.08 | 0.08 | 42 | 1006.8 |
| 20260505122515 | 7 | 293 | 4.8 | 11.3 | 0.00 | 0.08 | 0.08 | 42 | 1006.8 |
| 20260505121517 | 7 | 315 | 8.0 | 17.7 | 0.00 | 0.08 | 0.08 | 50 | 1006.9 |
| 20260505120517 | 6 | 270 | 9.7 | 16.1 | 0.00 | 0.08 | 0.08 | 52 | 1007.0 |
| 20260505115517 | 6 | 315 | 9.7 | 20.9 | 0.00 | 0.08 | 0.08 | 48 | 1006.8 |
| 20260505114537 | 7 | 315 | 14.5 | 24.1 | 0.00 | 0.08 | 0.08 | 49 | 1006.8 |
| 20260505113518 | 8 | 315 | 8.0 | 19.3 | 0.00 | 0.08 | 0.08 | 43 | 1006.4 |
| 20260505112517 | 7 | 248 | 4.8 | 11.3 | 0.00 | 0.08 | 0.08 | 48 | 1006.6 |
| 20260505111517 | 7 | 248 | 4.8 | 11.3 | 0.00 | 0.08 | 0.08 | 47 | 1006.7 |
| 20260505110517 | 7 | 270 | 4.8 | 14.5 | 0.00 | 0.08 | 0.08 | 45 | 1006.6 |
| 20260505101517 | 7 | 293 | 4.8 | 9.7 | 0.00 | 0.08 | 0.08 | 50 | 1006.4 |
| 20260505100517 | 7 | 315 | 9.7 | 20.9 | 0.00 | 0.08 | 0.08 | 51 | 1006.4 |
| 20260505095517 | 7 | 315 | 4.8 | 14.5 | 0.00 | 0.08 | 0.08 | 50 | 1006.4 |
| 20260505094517 | 7 | 315 | 8.0 | 14.5 | 0.00 | 0.08 | 0.08 | 50 | 1006.4 |
| 20260505093517 | 7 | 315 | 9.7 | 16.1 | 0.00 | 0.08 | 0.08 | 50 | 1006.4 |
| 20260505092517 | 7 | 270 | 6.4 | 16.1 | 0.00 | 0.08 | 0.08 | 56 | 1006.4 |
| 20260505091517 | 7 | 248 | 9.7 | 17.7 | 0.00 | 0.08 | 0.08 | 52 | 1006.4 |
| 20260505090517 | 7 | 293 | 6.4 | 11.3 | 0.00 | 0.08 | 0.08 | 54 | 1006.3 |
| 20260505085517 | 6 | 270 | 6.4 | 14.5 | 0.00 | 0.08 | 0.08 | 53 | 1006.4 |
| 20260505084517 | 6 | 270 | 6.4 | 12.9 | 0.00 | 0.08 | 0.08 | 55 | 1006.3 |
| 20260505083517 | 6 | 270 | 8.0 | 17.7 | 0.00 | 0.08 | 0.08 | 58 | 1006.2 |
| 20260505082537 | 6 | 270 | 8.0 | 14.5 | 0.00 | 0.08 | 0.08 | 57 | 1006.1 |
| 20260505081517 | 6 | 270 | 6.4 | 12.9 | 0.00 | 0.08 | 0.08 | 57 | 1006.1 |
| 20260505080537 | 6 | 270 | 6.4 | 11.3 | 0.00 | 0.08 | 0.08 | 58 | 1006.0 |
| 20260505075517 | 5 | 225 | 6.4 | 14.5 | 0.00 | 0.08 | 0.08 | 61 | 1006.0 |
| 20260505074517 | 5 | 315 | 6.4 | 11.3 | 0.00 | 0.08 | 0.08 | 61 | 1005.9 |
| 20260505073517 | 5 | 270 | 6.4 | 16.1 | 0.00 | 0.08 | 0.08 | 60 | 1005.9 |
| 20260505072517 | 6 | 270 | 11.3 | 22.5 | 0.00 | 0.08 | 0.08 | 60 | 1005.8 |
| 20260505071537 | 5 | 225 | 4.8 | 11.3 | 0.00 | 0.08 | 0.08 | 62 | 1005.7 |
| 20260505070517 | 5 | 270 | 8.0 | 24.1 | 0.00 | 0.08 | 0.08 | 60 | 1005.5 |
| 20260505065537 | 5 | 293 | 8.0 | 16.1 | 0.00 | 0.08 | 0.08 | 62 | 1005.5 |
| 20260505064517 | 5 | 293 | 8.0 | 14.5 | 0.00 | 0.08 | 0.08 | 64 | 1005.4 |
| 20260505063517 | 5 | 270 | 12.9 | 25.7 | 0.00 | 0.08 | 0.08 | 64 | 1005.3 |
| 20260505062517 | 4 | 270 | 11.3 | 17.7 | 0.00 | 0.08 | 0.08 | 68 | 1005.2 |
| 20260505061517 | 4 | 270 | 12.9 | 22.5 | 0.00 | 0.08 | 0.08 | 69 | 1005.1 |
| 20260505060517 | 3 | 270 | 11.3 | 27.4 | 0.00 | 0.08 | 0.08 | 70 | 1005.1 |
| 20260505055517 | 3 | 270 | 11.3 | 17.7 | 0.00 | 0.08 | 0.08 | 71 | 1005.1 |
| 20260505054517 | 3 | 270 | 11.3 | 19.3 | 0.00 | 0.08 | 0.08 | 71 | 1005.1 |
| 20260505053517 | 3 | 270 | 12.9 | 24.1 | 0.00 | 0.08 | 0.08 | 71 | 1005.1 |
| 20260505052517 | 3 | 270 | 11.3 | 20.9 | 0.00 | 0.08 | 0.08 | 72 | 1005.0 |
| 20260505051517 | 3 | 293 | 9.7 | 20.9 | 0.00 | 0.08 | 0.08 | 73 | 1005.0 |
| 20260505050517 | 2 | 270 | 11.3 | 24.1 | 0.00 | 0.08 | 0.08 | 73 | 1004.7 |
| 20260505041517 | 1 | 270 | 8.0 | 19.3 | 0.00 | 0.08 | 0.08 | 78 | 1004.5 |
| 20260505040537 | 1 | 270 | 9.7 | 17.7 | 0.00 | 0.08 | 0.08 | 79 | 1004.4 |
| 20260505035517 | 1 | 270 | 9.7 | 16.1 | 0.00 | 0.08 | 0.08 | 80 | 1004.3 |
| 20260505034517 | 1 | 270 | 8.0 | 16.1 | 0.00 | 0.08 | 0.08 | 81 | 1004.1 |
| 20260505033517 | 1 | 293 | 6.4 | 14.5 | 0.00 | 0.08 | 0.08 | 82 | 1004.1 |
| 20260505032517 | 1 | 270 | 6.4 | 16.1 | 0.00 | 0.08 | 0.08 | 84 | 1004.0 |
| 20260505031517 | 1 | 270 | 6.4 | 14.5 | 0.00 | 0.08 | 0.08 | 86 | 1004.0 |
| 20260505030517 | 1 | 270 | 8.0 | 16.1 | 0.00 | 0.08 | 0.08 | 88 | 1003.9 |
| 20260505025537 | 1 | 270 | 6.4 | 16.1 | 0.00 | 0.08 | 0.08 | 89 | 1003.7 |
| 20260505024537 | 1 | 270 | 8.0 | 14.5 | 0.00 | 0.08 | 0.08 | 90 | 1003.6 |
| 20260505023517 | 1 | 270 | 6.4 | 14.5 | 0.00 | 0.08 | 0.08 | 90 | 1003.4 |
| 20260505022517 | 1 | 270 | 6.4 | 14.5 | 0.00 | 0.08 | 0.08 | 91 | 1003.4 |
| 20260505021557 | 1 | 270 | 8.0 | 14.5 | 0.00 | 0.08 | 0.08 | 91 | 1003.3 |
| 20260505020537 | 1 | 293 | 4.8 | 11.3 | 0.00 | 0.08 | 0.08 | 91 | 1003.2 |
| 20260505015537 | 1 | 293 | 1.6 | 6.4 | 0.00 | 0.08 | 0.08 | 90 | 1003.1 |
| 20260505014517 | 1 | 270 | 3.2 | 6.4 | 0.00 | 0.08 | 0.08 | 91 | 1003.0 |
| 20260505013537 | 2 | 248 | 4.8 | 11.3 | 0.00 | 0.08 | 0.08 | 91 | 1003.0 |
| 20260505012517 | 2 | 270 | 4.8 | 9.7 | 0.00 | 0.08 | 0.08 | 91 | 1002.9 |
| 20260505011517 | 2 | 270 | 3.2 | 6.4 | 0.00 | 0.08 | 0.08 | 92 | 1002.9 |
| 20260505010517 | 2 | 270 | 4.8 | 9.7 | 0.00 | 0.08 | 0.08 | 92 | 1002.9 |
| 20260505005517 | 2 | 293 | 3.2 | 8.0 | 0.00 | 0.08 | 0.08 | 92 | 1002.8 |
| 20260505004537 | 2 | 270 | 3.2 | 8.0 | 0.00 | 0.08 | 0.08 | 92 | 1002.7 |
| 20260505003517 | 2 | 315 | 1.6 | 8.0 | 0.00 | 0.08 | 0.08 | 91 | 1002.6 |
| 20260505002517 | 2 | 270 | 3.2 | 8.0 | 0.00 | 0.08 | 0.08 | 91 | 1002.7 |